User: anonymous   Login
Location: Bun Machan
(52.1403°N, 7.3744°W)
Time: 03:57:25
(UTC+00:00)
Language:

Cosmos 2233 Rocket - Orbit

View from above orbital plane
View from above orbital plane
View from above satellite
View from above satellite

Ground track
Ground track

The orbit data is extracted from the following two-line orbital elements,

1 22488U 93008B   20266.80438006 +.00000156 +00000-0 +13997-3 0  9993
2 22488 082.9385 270.1440 0026708 118.7433 055.1698 13.77715230388323
Epoch (UTC): 22 September 2020 19:18:18
Eccentricity: 0.0026708
inclination: 82.9385°
perigee height: 952 km
apogee height: 991 km
right ascension of ascending node: 270.1440°
argument of perigee: 118.7433°
revolutions per day: 13.77715230
mean anomaly at epoch: 55.1698°
orbit number at epoch: 38832

The dashed part of the orbit path shows where the satellite is in the earth's shadow,  

DLR